Tracking 31027 objects as of 19-Jul-2025
HD Live streaming from Space Station
objects crossing your sky now

METEOR 2-17 DEB

Track METEOR 2-17 DEB now!
10-day predictions


NORAD ID: 35365
Int'l Code: 1988-005Z
Perigee: 894.8 km
Apogee: 908.9 km
Inclination: 82.5 °
Period: 102.9 minutes
Semi major axis: 7272 km
RCS: 0.0068 m2 (small)
Launch date: January 30, 1988
Source: Commonwealth of Independent States (former USSR) (CIS)
Launch site: PLESETSK MISSILE AND SPACE COMPLEX (PKMTR)

Note: This is SATELLITE DEBRIS
Your satellite tracking list
Your tracking list is empty




NASA's NSSDC Master Catalog

Two Line Element Set (TLE):
1 35365U 88005Z   25197.71564325  .00000906  00000-0  60824-3 0  9998
2 35365  82.5068 172.2631 0009712  91.0814  87.1083 13.99741835573144
Source of the keplerian elements: AFSPC